Location: Bouillancy
(49.1149°N, 2.9308°E)
Time: 07:41:29
(UTC+00:00)

KORONAS-FOTON - Pass Details

Date: 30 September 2020
Orbit: 505 x 532 km, 82.4° (Epoch: 29 October)

Event Time Altitude Azimuth Distance (km) Brightness Sun altitude
Rises 18:07:19 0° 352° (N) 2,690 7.6 -7.2°
Reaches altitude 10° 18:09:30 10° 355° (N) 1,793 6.7 -7.6°
Maximum altitude 18:13:25 66° 78° (ENE) 582 3.8 -8.2°
Drops below altitude 10° 18:17:17 10° 162° (SSE) 1,767 6.3 -8.8°
Sets 18:19:25 0° 165° (SSE) 2,647 7.2 -9.2°
